TimeCST,TemperatureF,Dew PointF,Humidity,Sea Level PressureIn,VisibilityMPH,Wind Direction,Wind SpeedMPH,Gust SpeedMPH,PrecipitationIn,Events,Conditions,WindDirDegrees,DateUTC
12:15 AM,18.5,10.0,70,29.86,-9999.0,NNW,9.2,-,N/A,,Overcast,340,2014-01-15 06:15:00
12:35 AM,18.5,10.0,70,29.87,10.0,NNW,6.9,-,N/A,,Overcast,340,2014-01-15 06:35:00
12:55 AM,18.5,10.0,70,29.87,10.0,NNW,6.9,-,N/A,,Overcast,340,2014-01-15 06:55:00
1:15 AM,18.3,10.0,70,29.88,10.0,NNW,6.9,-,N/A,,Overcast,340,2014-01-15 07:15:00
1:35 AM,18.3,9.5,68,29.88,10.0,North,8.1,-,N/A,,Overcast,350,2014-01-15 07:35:00
1:55 AM,17.6,8.6,68,29.89,10.0,NNW,3.5,-,N/A,,Overcast,330,2014-01-15 07:55:00
2:15 AM,16.9,8.1,68,29.90,10.0,NNW,4.6,-,N/A,,Overcast,330,2014-01-15 08:15:00
2:35 AM,17.4,8.4,68,29.90,10.0,NNW,4.6,-,N/A,,Overcast,330,2014-01-15 08:35:00
2:55 AM,16.9,8.6,70,29.91,10.0,NW,6.9,-,N/A,,Overcast,320,2014-01-15 08:55:00
3:15 AM,17.8,8.8,68,29.91,10.0,NNW,4.6,-,N/A,,Overcast,330,2014-01-15 09:15:00
3:35 AM,17.6,9.5,71,29.91,10.0,NW,3.5,-,N/A,,Overcast,310,2014-01-15 09:35:00
3:55 AM,17.6,10.0,72,29.92,10.0,NW,3.5,-,N/A,,Overcast,310,2014-01-15 09:55:00
4:15 AM,18.0,10.4,72,29.92,10.0,WNW,4.6,-,N/A,Snow,Light Snow,300,2014-01-15 10:15:00
4:35 AM,18.3,9.3,68,29.93,10.0,NW,10.4,18.4,N/A,,Overcast,320,2014-01-15 10:35:00
4:55 AM,18.3,9.5,68,29.93,10.0,NW,5.8,-,N/A,,Overcast,310,2014-01-15 10:55:00
5:15 AM,18.0,10.0,71,29.94,10.0,WNW,5.8,-,N/A,,Overcast,300,2014-01-15 11:15:00
5:35 AM,18.1,9.3,68,29.95,10.0,NW,8.1,-,N/A,,Overcast,320,2014-01-15 11:35:00
5:55 AM,17.6,9.3,70,29.95,10.0,NW,4.6,-,N/A,,Overcast,320,2014-01-15 11:55:00
6:15 AM,17.6,9.1,69,29.95,10.0,NW,4.6,-,N/A,,Overcast,310,2014-01-15 12:15:00
6:35 AM,17.2,9.1,71,29.95,10.0,WNW,5.8,-,N/A,,Overcast,300,2014-01-15 12:35:00
6:55 AM,16.7,9.0,72,29.96,10.0,Calm,Calm,-,N/A,Snow,Light Snow,0,2014-01-15 12:55:00
7:15 AM,16.7,9.1,72,29.96,10.0,NW,4.6,-,N/A,,Overcast,310,2014-01-15 13:15:00
7:35 AM,16.7,8.6,70,29.97,10.0,NW,3.5,-,N/A,,Overcast,310,2014-01-15 13:35:00
7:55 AM,16.7,8.2,69,29.98,10.0,WNW,3.5,-,N/A,,Overcast,300,2014-01-15 13:55:00
8:15 AM,15.3,7.3,71,29.99,10.0,Calm,Calm,-,N/A,,Scattered Clouds,0,2014-01-15 14:15:00
8:35 AM,15.4,7.5,71,29.99,10.0,Calm,Calm,-,N/A,,Mostly Cloudy,0,2014-01-15 14:35:00
8:55 AM,15.8,7.2,69,29.98,10.0,WNW,4.6,-,N/A,,Overcast,300,2014-01-15 14:55:00
9:15 AM,16.7,7.7,68,29.99,10.0,WNW,3.5,-,N/A,,Overcast,300,2014-01-15 15:15:00
9:35 AM,17.4,7.5,65,29.99,10.0,NNW,6.9,-,N/A,,Overcast,330,2014-01-15 15:35:00
9:55 AM,17.6,7.7,65,29.99,10.0,Calm,Calm,-,N/A,Snow,Light Snow,0,2014-01-15 15:55:00
10:15 AM,18.0,8.4,66,29.99,10.0,West,3.5,-,N/A,Snow,Light Snow,280,2014-01-15 16:15:00
10:35 AM,18.3,9.0,67,29.99,10.0,West,3.5,-,N/A,Snow,Light Snow,270,2014-01-15 16:35:00
10:55 AM,18.9,8.6,64,29.97,10.0,West,6.9,-,N/A,Snow,Light Snow,260,2014-01-15 16:55:00
11:15 AM,18.5,8.6,65,29.96,10.0,West,4.6,-,N/A,,Overcast,280,2014-01-15 17:15:00
11:35 AM,18.5,8.4,65,29.96,10.0,West,8.1,-,N/A,,Overcast,270,2014-01-15 17:35:00
11:55 AM,18.5,8.8,66,29.96,10.0,WSW,9.2,-,N/A,,Overcast,250,2014-01-15 17:55:00
12:15 PM,18.3,8.2,65,29.95,10.0,West,6.9,16.1,N/A,,Overcast,280,2014-01-15 18:15:00
12:35 PM,18.9,8.4,64,29.94,10.0,West,9.2,-,N/A,,Overcast,260,2014-01-15 18:35:00
12:55 PM,19.4,8.4,62,29.93,10.0,WSW,10.4,-,N/A,,Overcast,240,2014-01-15 18:55:00
1:15 PM,19.6,8.2,61,29.91,10.0,SW,8.1,-,N/A,,Overcast,230,2014-01-15 19:15:00
1:35 PM,18.9,7.9,62,29.90,10.0,WSW,6.9,-,N/A,,Mostly Cloudy,250,2014-01-15 19:35:00
1:55 PM,18.9,7.9,62,29.90,10.0,SW,6.9,-,N/A,,Mostly Cloudy,230,2014-01-15 19:55:00
2:15 PM,18.3,7.7,63,29.90,10.0,SW,4.6,-,N/A,,Mostly Cloudy,230,2014-01-15 20:15:00
2:35 PM,18.3,7.5,63,29.90,10.0,WSW,10.4,-,N/A,,Mostly Cloudy,240,2014-01-15 20:35:00
2:55 PM,17.6,6.8,63,29.90,10.0,WSW,9.2,-,N/A,,Scattered Clouds,240,2014-01-15 20:55:00
3:15 PM,17.4,6.8,63,29.89,10.0,SW,5.8,-,N/A,,Clear,220,2014-01-15 21:15:00
3:35 PM,16.3,6.6,66,29.90,10.0,SW,9.2,-,N/A,,Clear,220,2014-01-15 21:35:00
3:55 PM,15.1,5.7,66,29.90,10.0,SW,9.2,-,N/A,,Clear,230,2014-01-15 21:55:00
4:15 PM,14.2,5.4,68,29.88,10.0,SSW,8.1,-,N/A,,Clear,210,2014-01-15 22:15:00
4:35 PM,13.3,4.6,68,29.88,10.0,SW,6.9,-,N/A,,Clear,230,2014-01-15 22:35:00
4:55 PM,13.1,4.5,68,29.90,10.0,WSW,8.1,-,N/A,,Clear,240,2014-01-15 22:55:00
5:15 PM,12.9,4.5,69,29.89,10.0,SW,8.1,16.1,N/A,,Scattered Clouds,230,2014-01-15 23:15:00
5:35 PM,12.7,4.5,70,29.86,10.0,SSW,6.9,-,N/A,,Mostly Cloudy,200,2014-01-15 23:35:00
5:55 PM,12.2,4.6,72,29.85,10.0,SW,4.6,-,N/A,,Scattered Clouds,220,2014-01-15 23:55:00
6:15 PM,12.2,4.6,72,29.84,10.0,SW,4.6,-,N/A,,Scattered Clouds,230,2014-01-16 00:15:00
6:35 PM,11.7,4.5,73,29.81,10.0,SSW,3.5,-,N/A,,Scattered Clouds,200,2014-01-16 00:35:00
6:55 PM,11.3,4.5,74,29.81,10.0,SW,3.5,-,N/A,,Clear,220,2014-01-16 00:55:00
7:15 PM,11.3,4.5,74,29.80,10.0,Calm,Calm,-,N/A,,Clear,0,2014-01-16 01:15:00
7:35 PM,11.7,5.0,75,29.79,10.0,Calm,Calm,-,N/A,,Mostly Cloudy,0,2014-01-16 01:35:00
7:55 PM,12.2,5.5,75,29.78,10.0,SSW,3.5,-,N/A,,Overcast,210,2014-01-16 01:55:00
8:15 PM,12.6,5.7,74,29.75,10.0,South,4.6,-,N/A,,Overcast,190,2014-01-16 02:15:00
8:35 PM,12.9,5.9,74,29.74,10.0,South,5.8,-,N/A,,Overcast,190,2014-01-16 02:35:00
8:55 PM,13.1,5.7,72,29.71,10.0,South,5.8,-,N/A,,Overcast,190,2014-01-16 02:55:00
9:15 PM,13.1,5.9,73,29.71,10.0,SSW,5.8,-,N/A,,Overcast,210,2014-01-16 03:15:00
9:35 PM,13.3,5.9,72,29.69,10.0,South,8.1,-,N/A,,Overcast,180,2014-01-16 03:35:00
9:55 PM,13.5,5.9,72,29.69,10.0,SW,8.1,-,N/A,,Overcast,220,2014-01-16 03:55:00
10:15 PM,13.5,5.9,72,29.67,10.0,SSW,9.2,-,N/A,Snow,Light Snow,200,2014-01-16 04:15:00
10:35 PM,13.5,5.9,72,29.67,10.0,SW,8.1,-,N/A,,Overcast,220,2014-01-16 04:35:00
10:55 PM,13.3,6.6,75,29.65,5.0,SSW,4.6,-,N/A,Snow,Light Snow,210,2014-01-16 04:55:00
11:15 PM,13.5,7.3,77,29.63,7.0,SSW,4.6,-,N/A,Snow,Light Snow,210,2014-01-16 05:15:00
11:35 PM,13.6,8.2,79,29.61,3.0,South,4.6,-,N/A,Snow,Light Snow,190,2014-01-16 05:35:00
11:55 PM,13.6,8.8,81,29.59,5.0,SSW,4.6,-,N/A,Snow,Light Snow,200,2014-01-16 05:55:00